Overview Statistics Trail Chart Weather Telemetry Raw packets
 

This is the latest recevied weather packets stored in our database for station/object 1NW106. If no packets are shown the sender has not sent any weather packets the latest 10 day(s).

<< 1 2 3 4 >>
Time Temp. Humidity Pressure Rain* Wind** Luminosity Snow
1788585126 28.89° C 89% 1010.6 hPa 1.52 mm - - -
1788584526 28.89° C 88% 1010.7 hPa 1.52 mm - - -
1788583926 29.44° C 85% 1011.4 hPa 1.52 mm - - -
1788583326 30° C 86% 1011.5 hPa 1.52 mm - - -
1788582726 28.89° C 88% 1011.2 hPa 1.52 mm - - -
1788582126 27.78° C 93% 1011 hPa 1.52 mm - - -
1788581526 27.78° C 94% 1010.7 hPa 1.52 mm - - -
1788580926 27.78° C 93% 1010.7 hPa 1.52 mm - - -
1788580326 27.78° C 95% 1010.6 hPa 1.52 mm - - -
1788579726 27.78° C 94% 1010.6 hPa 1.52 mm - - -
1788579126 28.33° C 93% 1011 hPa 1.52 mm - - -
1788578526 28.33° C 89% 1011.4 hPa 1.52 mm - - -
1788577928 28.33° C 89% 1011.9 hPa 1.52 mm - - -
1788577326 27.78° C 90% 1011.5 hPa 1.52 mm - - -
1788576726 27.78° C 93% 1011.4 hPa 1.52 mm - - -
1788576136 26.67° C 96% 1010.7 hPa 1.52 mm - - -
1788575526 26.11° C 99% 1010 hPa 1.52 mm - - -
1788574926 25.56° C 99% 1009 hPa 1.52 mm - - -
1788574326 25.56° C 99% 1008.5 hPa 1.52 mm - - -
1788573726 25° C 99% 1007.8 hPa 1.52 mm - - -
1788573126 25° C 99% 1006 hPa 1.52 mm - - -
1788572526 25° C 99% 1005.4 hPa 1.52 mm - - -
1788571926 24.44° C 99% 1005.5 hPa 1.52 mm - - -
1788571326 24.44° C 99% 1005.2 hPa 1.52 mm - - -
1788570726 23.89° C 99% 1005.3 hPa 1.52 mm - - -

* Rain latest hour (hover to see other rain measurements)
** Current wind speed in m/s (hover to see current wind gust speed)